Hill City, KS

3:19 PM CDT on July 21, 2017 (GMT -0500)
Hill City Municipal

Weather History for KHLC - February, 2012

Change the Weather History Date:

Tuesday, February 14, 2012

  Actual Average Record
Temperature  
Mean Temperature 35 °F 32 °F  
Max Temperature 49 °F 46 °F 79 °F (1954)
Min Temperature 21 °F 19 °F -3 °F (2007)
Degree Days  
Heating Degree Days 32    
Moisture  
Dew Point 27 °F    
Average Humidity 75    
Maximum Humidity 89    
Minimum Humidity 54    
Precipitation  
Precipitation 0.00 in 0.01 in 0.05 in (2003)
Month to date precipitation 0.66 0.25  
Year to date precipitation 0.67 0.70  
Sea Level Pressure  
Sea Level Pressure 29.84 in    
Wind  
Wind Speed 5 mph (SW)    
Max Wind Speed 8 mph    
Max Gust Speed -    
Visibility 10 miles    
Events      
T = Trace of Precipitation, MM = Missing Value Source: NWS Daily Summary

Daily Weather History Graph

Daily Weather History Graph

Search for Another Location

Airport or City:

Trip Planner

Search our weather history database for the weather conditions in past years. The results will help you decide how hot, cold, wet, or windy it might be!

Date:

Astronomy

Feb. 14, 2012 Rise Set
Actual Time 7:33 AM CST 6:14 PM CST
Civil Twilight 7:05 AM CST 6:42 PM CST
Nautical Twilight 6:34 AM CST 7:13 PM CST
Astronomical Twilight 6:02 AM CST 7:44 PM CST
Moon 1:19 AM CST (2/14) 11:21 AM CST (2/14)
Length of Visible Light 11h 36m
Length of Day
10h 41m
Waning Gibbous, 50% of the Moon is Illuminated
Feb 14
Waning Gibbous
Feb 21
New
Feb 29
First Quarter
Mar 8
Full
Mar 14
Last Quarter

Hourly Weather History & Observations

Time (CST) Temp. Windchill Dew Point Humidity Pressure Visibility Wind Dir Wind Speed Gust Speed Precip Events Conditions
12:53 AM 24.1 °F 16.0 °F 19.0 °F 81% 29.86 in 9.0 mi WNW 6.9 mph - N/A   Clear
1:53 AM 21.9 °F 14.5 °F 18.0 °F 85% 29.87 in 8.0 mi West 5.8 mph - N/A   Clear
2:53 AM 26.1 °F 18.4 °F 21.0 °F 81% 29.86 in 9.0 mi West 6.9 mph - N/A   Clear
3:53 AM 26.1 °F 19.4 °F 21.9 °F 84% 29.86 in 10.0 mi West 5.8 mph - N/A   Scattered Clouds
4:53 AM 27.0 °F 20.5 °F 21.9 °F 81% 29.86 in 10.0 mi West 5.8 mph - N/A   Clear
5:53 AM 27.0 °F 20.5 °F 23.0 °F 85% 29.86 in 10.0 mi West 5.8 mph - N/A   Mostly Cloudy
6:53 AM 27.0 °F 21.6 °F 24.1 °F 89% 29.87 in 10.0 mi West 4.6 mph - N/A   Overcast
7:53 AM 27.0 °F 20.5 °F 23.0 °F 85% 29.89 in 9.0 mi SW 5.8 mph - N/A   Mostly Cloudy
8:53 AM 28.9 °F 21.1 °F 24.1 °F 82% 29.90 in 10.0 mi WNW 8.1 mph - N/A   Clear
9:53 AM 33.1 °F 26.9 °F 26.1 °F 75% 29.89 in 10.0 mi West 6.9 mph - N/A   Clear
10:53 AM 37.9 °F 35.5 °F 30.0 °F 73% 29.88 in 10.0 mi West 3.5 mph - N/A   Clear
12:53 PM 42.1 °F 39.2 °F 30.0 °F 62% 29.84 in 10.0 mi South 4.6 mph - N/A   Clear
1:53 PM 43.0 °F 39.5 °F 32.0 °F 65% 29.82 in 10.0 mi South 5.8 mph - N/A   Clear
2:53 PM 45.0 °F 41.8 °F 30.9 °F 58% 29.79 in 10.0 mi South 5.8 mph - N/A   Clear
3:53 PM 46.9 °F - 32.0 °F 56% 29.78 in 10.0 mi SE 3.5 mph - N/A   Clear
4:53 PM 46.9 °F - 30.9 °F 54% 29.76 in 10.0 mi South 3.5 mph - N/A   Clear
5:53 PM 46.0 °F 43.9 °F 32.0 °F 58% 29.77 in 10.0 mi South 4.6 mph - N/A   Clear
6:53 PM 42.1 °F 40.2 °F 32.0 °F 67% 29.79 in 10.0 mi South 3.5 mph - N/A   Clear
7:53 PM 39.0 °F - 30.9 °F 73% 29.81 in 10.0 mi Calm Calm - N/A   Clear
8:53 PM 37.0 °F - 30.9 °F 79% 29.81 in 10.0 mi Calm Calm - N/A   Clear
9:53 PM 37.0 °F 32.4 °F 30.9 °F 79% 29.81 in 10.0 mi SSE 5.8 mph - N/A   Clear
10:53 PM 34.0 °F 29.8 °F 30.0 °F 85% 29.82 in 9.0 mi South 4.6 mph - N/A   Clear
11:53 PM 32.0 °F - 28.9 °F 88% 29.81 in 7.0 mi Calm Calm - N/A   Clear